Location: Ladd Observatory
(41.8387°N, 71.3996°W)
Time: 23:38:29
(UTC-04:00)

Daily predictions for brighter satellites

Satellite Brightness Start Highest point End
(mag) Time Altitude Azimuth Time Altitude Azimuth Time Altitude Azimuth
SJ-11-01 4.3 20:49:15 10° SSE 20:53:58 83° ENE 20:58:46 10° NNW
Cosmos 1727 Rocket 4.1 20:49:08 10° S 20:55:24 75° E 21:01:46 10° N
Cosmos 1023 Rocket 4.5 20:51:11 10° SSW 20:56:20 88° ESE 21:01:29 10° NNE
Cosmos 1242 Rocket 3.9 20:53:52 10° NNE 20:57:04 26° ENE 21:00:14 10° SE
SAR-Lupe-1 4.4 20:54:51 10° SSE 20:58:21 51° ENE 21:01:51 10° N
Cosmos 1356 Rocket 4.5 20:54:59 10° SSE 20:58:38 29° E 21:02:21 10° NNE
CZ-4B DEB 2.5 20:57:57 10° SSE 21:00:55 72° ENE 21:03:53 10° N
Lacrosse 5 3.2 20:57:10 10° NNW 21:01:41 31° NNE 21:06:10 10° E
SPOT 5 4.2 20:59:07 10° ESE 21:03:10 27° ENE 21:07:24 10° N
Cosmos 1867 3.9 20:59:57 10° S 21:05:07 46° ESE 21:10:19 10° NE
Cosmos 1076 Rocket 4.1 21:03:36 10° SSE 21:07:40 39° E 21:11:44 10° NNE
Cosmos 2082 4.5 21:02:41 10° SW 21:08:12 58° WNW 21:13:47 10° NNE
Cosmos 614 Rocket 4.2 21:08:16 10° SSW 21:13:29 80° WNW 21:18:42 10° NNE
Cosmos 2297 Rocket 3.1 21:08:20 10° SW 21:13:52 56° WNW 21:19:26 10° NNE
USA 234 3.6 21:08:58 10° ENE 21:15:05 40° SE 21:21:08 10° SSW
Meteor 1-21 Rocket 4.5 21:11:15 10° SSE 21:16:43 50° E 21:22:07 10° NNE
Cosmos 1850 Rocket 3.9 21:12:11 10° SSW 21:17:20 78° ESE 21:22:34 10° NNE
RESURS DK-1 3.9 21:15:20 10° N 21:18:48 25° NE 21:22:11 10° ESE
Abrixas rocket 4.0 21:17:01 10° NW 21:19:52 28° N 21:22:44 10° ENE
Cosmos 2221 2.5 21:15:46 10° N 21:20:10 81° E 21:24:34 10° S
MetOp-B 4.4 21:15:06 10° SSE 21:20:18 55° ENE 21:25:32 10° N
Tiangong 1 0.8 21:17:29 10° W 21:20:18 82° N 21:23:05 10° E
Cosmos 2263 Rocket 3.9 21:22:49 11° ESE 21:24:55 13° E 21:27:27 10° ENE
Okean 3 Rocket 3.6 21:22:40 10° S 21:27:11 89° W 21:31:41 10° N
ERS-1 Rocket 3.0 21:22:11 10° SSE 21:27:12 82° ENE 21:32:16 10° NNW
Milstar 3 Cent rocket 4.3 21:21:26 10° WSW 21:27:44 30° S 21:37:27 13° SE
ATLAS 5 CENTAUR R/B 2.0 21:25:59 10° SW 21:30:38 77° NW 21:35:43 10° NNE
Cosmos 1939 Rocket 4.5 21:28:25 10° SSW 21:32:03 33° W 21:35:45 10° NNW
YAOGAN 6 3.5 21:28:46 10° S 21:32:16 46° W 21:35:51 10° NNW
Cosmos 1300 4.1 21:29:57 10° NNE 21:33:07 24° ENE 21:35:17 15° ESE
H-2A R/B 2.9 21:29:37 13° SE 21:33:53 39° ENE 21:38:52 10° N
Cosmos 1726 3.0 21:32:35 10° NNE 21:35:56 32° ENE 21:38:08 17° SE
Cosmos 1340 Rocket 4.3 21:35:14 10° SW 21:39:00 39° WNW 21:42:50 10° N
Cosmos 1818 3.8 21:35:22 10° NW 21:40:47 66° WSW 21:45:22 14° SSE
Cosmos 2237 Rocket 4.2 21:37:52 10° NW 21:42:09 23° W 21:46:26 10° SSW
Cosmos 1741 Rocket 4.5 21:36:59 10° SSW 21:42:16 67° WNW 21:47:34 10° NNE
Cosmos 1766 Rocket 3.5 21:38:25 10° S 21:42:41 64° E 21:47:00 10° NNE
Terra 3.3 21:40:45 13° ESE 21:43:43 23° ENE 21:47:23 10° NNE
YAOGAN 11 4.2 21:44:31 16° SSE 21:48:04 72° ENE 21:52:36 10° N
USA 245 3.1 21:46:50 20° SSE 21:49:01 70° ENE 21:53:07 10° N
Cosmos 1328 Rocket 4.2 21:45:15 10° N 21:49:20 39° ENE 21:51:49 20° SE
Cosmos 1603 3.9 21:44:18 10° NNW 21:49:55 61° ENE 21:53:56 19° SE
SL-08 RB Rocket 3.7 21:49:54 18° SSE 21:53:16 70° ENE 21:57:52 10° N
Cosmos 332 Rocket 4.2 21:48:28 10° N 21:53:16 53° ENE 21:56:25 21° SE
Cosmos 2228 Rocket 3.6 21:52:30 10° N 21:56:56 45° ENE 21:59:30 22° SE
Cosmos 1151 Rocket 4.2 21:55:05 10° NNE 21:58:54 28° ENE 22:00:51 20° ESE
Cosmos 1743 Rocket 4.0 21:56:33 21° SSE 21:58:59 42° E 22:03:05 10° NNE
H-2A R/B 3.6 21:57:03 16° ESE 21:59:10 22° ENE 22:02:28 10° NNE
Cosmos 1674 3.8 21:57:08 10° SSW 22:00:44 43° W 22:04:21 10° N
Cosmos 1459 Rocket 4.3 21:56:19 10° NNW 22:02:33 66° W 22:08:40 10° S
H-2A ROCKET BODY 3.9 22:00:40 10° S 22:04:25 21° SE 22:13:26 10° E
ARGOS 3.3 22:01:30 15° S 22:06:00 74° WSW 22:11:26 10° NNW
Cosmos 1943 3.9 22:00:43 10° NNW 22:06:05 42° ENE 22:09:32 20° ESE
SL-16 R/B 3.5 22:01:32 10° NW 22:06:37 35° WSW 22:11:39 10° SSW
Cosmos 1455 4.3 22:04:33 10° NE 22:06:39 14° ENE 22:07:41 13° E
Cosmos 2061 Rocket 4.4 22:03:07 10° NNW 22:09:26 65° W 22:15:28 11° S
DMSP B5D2-2 4.3 22:04:34 10° NNE 22:09:39 49° E 22:12:46 22° SSE
Cosmos 1356 4.5 22:11:03 27° ESE 22:11:29 28° E 22:14:33 10° NNE
ERBS 3.3 22:09:09 10° NNW 22:12:22 40° NE 22:13:54 24° E
Nimbus 7 Rocket 4.4 22:09:58 10° NNE 22:16:02 82° ESE 22:21:48 11° SSW
Cosmos 2123 Rocket 3.9 22:11:01 13° S 22:16:34 84° E 22:22:48 10° N
Cosmos 1814 Rocket 4.0 22:13:05 10° NNW 22:18:28 78° ENE 22:21:25 27° SSE
Cosmos 1486 Rocket 4.0 22:20:44 20° S 22:24:19 63° ESE 22:29:34 10° NNE
SPOT 1/Viking Rocket 3.8 22:25:32 22° S 22:28:49 66° WSW 22:33:57 10° NNW
Cosmos 841 Rocket 3.7 22:24:53 10° NNW 22:30:06 60° ENE 22:32:30 31° SE
Cosmos 1703 3.8 22:31:38 37° ESE 22:32:21 41° E 22:36:07 10° NNE
Cosmos 1763 Rocket 3.4 22:27:33 10° NNW 22:32:41 81° ENE 22:35:00 33° SSE
Cosmos 220 Rocket 4.1 22:30:12 16° SSW 22:33:40 80° WNW 22:38:05 10° NNE
Meteor 1-11 4.2 22:32:13 24° S 22:35:46 72° E 22:41:35 10° NNE
Cosmos 1725 Rocket 4.2 22:33:15 10° NNW 22:39:28 68° W 22:43:35 22° S
SPOT 5 4.1 22:37:41 16° SSW 22:41:03 35° W 22:45:41 10° NNW
Cosmos 2058 2.9 22:41:53 42° SSE 22:43:11 71° E 22:47:24 10° NNE
PSLV R/B 4.0 22:43:44 35° ENE 22:43:44 35° ENE 22:46:07 10° N
Cosmos 371 Rocket 3.5 22:38:55 10° NNW 22:43:42 63° WSW 22:45:45 33° S
Lacrosse 5 2.1 22:39:57 10° NW 22:44:55 59° SW 22:46:42 37° S
deb Chang Zheng 4 3.7 22:44:15 10° NNE 22:48:35 58° ESE 22:49:38 45° SSE
Meteor 1-27 4.2 22:44:34 10° N 22:50:25 89° WSW 22:53:07 34° S
CZ-4C R/B 3.5 22:56:27 21° E 22:56:27 21° E 23:00:02 10° ENE
Tiangong 1 1.8 22:53:10 10° W 22:55:09 42° WNW 22:55:09 42° WNW
RESURS DK-1 3.7 22:53:12 10° NW 22:56:51 30° WSW 22:58:06 25° SW
Abrixas rocket 2.1 22:53:39 10° WNW 22:56:48 83° NW 22:56:48 83° NW
USA 234 3.7 22:51:48 10° NE 22:58:14 62° NW 23:04:40 10° WSW
Cosmos 1500 Rocket 4.4 23:01:39 24° SW 23:04:03 48° WNW 23:08:23 10° N
Cosmos 2151 3.5 23:02:32 31° SW 23:04:20 56° W 23:08:35 10° N
Cosmos 1464 Rocket 4.3 22:58:41 10° N 23:04:42 53° ENE 23:06:58 35° SE
Cosmos 1626 2.2 23:05:11 56° SW 23:05:49 70° W 23:09:32 10° N
Cosmos 2263 Rocket 2.2 23:04:26 23° SSW 23:08:02 81° WNW 23:13:40 10° NNE
Cosmos 1503 Rocket 3.9 23:08:10 39° SSW 23:10:09 83° ESE 23:15:21 10° NNE
Cosmos 1666 Rocket 4.2 23:11:30 39° E 23:11:44 40° E 23:15:54 10° NNE
H-2A R/B 3.7 23:10:15 17° SW 23:13:21 28° W 23:17:58 10° NW
CARTOSAT-1 4.4 23:12:29 34° SW 23:13:42 43° W 23:17:50 10° NNW
ARGOS Delta rocket 4.5 23:11:19 10° NNE 23:16:21 42° E 23:17:03 40° ESE
Terra 2.7 23:19:38 31° SW 23:21:12 40° W 23:25:41 10° NNW
CZ-4 R/B 3.9 23:16:35 10° N 23:21:27 73° WNW 23:23:07 40° SSW
Cosmos 1805 Rocket 3.4 23:22:29 68° SSE 23:22:59 81° E 23:27:21 10° N
Cosmos 1633 Rocket 3.4 23:28:53 49° E 23:28:53 49° E 23:33:05 10° NNE
CZ-4B R/B 3.6 23:25:10 10° N 23:30:27 77° WNW 23:32:19 41° SSW
Cosmos 968 Rocket 3.9 23:33:28 43° ESE 23:33:47 44° ESE 23:38:46 10° NNE
H-2A R/B 3.2 23:34:10 30° WSW 23:34:59 33° W 23:38:52 10° NNW
Cosmos 540 Rocket 3.4 23:29:54 10° NNW 23:35:04 76° WSW 23:36:05 57° S
Tsikada Rocket 4.4 23:33:44 40° SE 23:35:26 50° E 23:41:32 10° NNE
CZ-2C R/B 3.7 23:37:56 39° ESE 23:39:38 52° ENE 23:45:09 10° N
Cosmos 1844 Rocket 3.1 23:41:56 41° ESE 23:42:13 41° ESE 23:47:26 10° NE
Cosmos 1455 3.1 23:38:56 10° NNW 23:42:33 39° W 23:42:40 38° W
Cosmos 1869 3.2 23:40:18 10° N 23:44:06 79° NW 23:44:06 79° NW
Cosmos 304 Rocket 4.2 23:42:44 10° NNW 23:47:20 47° WSW 23:47:54 44° SW
Cosmos 1943 4.5 23:45:10 10° NW 23:49:54 28° WSW 23:51:21 25° SW
CZ-4C R/B 3.9 23:49:57 49° WSW 23:50:11 50° W 23:54:27 10° NNW
Cosmos 2084 Rocket 4.2 23:46:45 10° NNW 23:50:21 38° NE 23:50:36 38° ENE
Cosmos 2242 Rocket 3.7 23:49:37 10° N 23:54:12 64° E 23:54:26 63° E
Cosmos 1400 Rocket 3.5 23:55:02 47° ENE 23:55:02 47° ENE 23:58:33 10° NNE
